Weather History for KVPZ - August, 2013

Change the Weather History Date:

Sunday, August 25, 2013

  Actual Average Record
Temperature  
Mean Temperature 72 °F 70 °F  
Max Temperature 87 °F 80 °F 92 °F (2003)
Min Temperature 57 °F 60 °F 54 °F (2005)
Degree Days  
Heating Degree Days 0 1  
Month to date heating degree days 12 1  
Since 1 June heating degree days 65 46  
Since 1 July heating degree days 28 5  
Cooling Degree Days 7 5  
Month to date cooling degree days 119 157  
Year to date cooling degree days 594 608  
Since 1 June cooling degree days 493 561  
Growing Degree Days 22 (Base 50)    
Moisture  
Dew Point 60 °F    
Average Humidity 66    
Maximum Humidity 90    
Minimum Humidity 43    
Precipitation  
Precipitation 0.00 in 0.14 in 1.58 in (2001)
Month to date precipitation 3.70 3.49  
Year to date precipitation 25.33 24.72  
Sea Level Pressure  
Sea Level Pressure 30.24 in    
Wind  
Wind Speed 6 mph (SSW)    
Max Wind Speed 14 mph    
Max Gust Speed 18 mph    
Visibility 10 miles    
Events      
T = Trace of Precipitation, MM = Missing Value Source: NWS Daily Summary

Daily Weather History Graph

Daily Weather History Graph

Search for Another Location

Airport or City:

Trip Planner

Search our weather history database for the weather conditions in past years. The results will help you decide how hot, cold, wet, or windy it might be!

Date:

Astronomy

Aug. 25, 2013 Rise Set
Actual Time 6:07 AM CDT 7:31 PM CDT
Civil Twilight 5:38 AM CDT 8:00 PM CDT
Nautical Twilight 5:03 AM CDT 8:35 PM CDT
Astronomical Twilight 4:26 AM CDT 9:12 PM CDT
Moon 9:58 PM CDT 11:13 AM CDT
Length of Visible Light 14h 22m
Length of Day
13h 24m
Waning Gibbous, 75% of the Moon is Illuminated
Aug 25
Waning Gibbous
Aug 28
Last Quarter
Sep 5
New
Sep 12
First Quarter
Sep 19
Full

Hourly Weather History & Observations

Time (CDT) Temp. Heat Index Dew Point Humidity Pressure Visibility Wind Dir Wind Speed Gust Speed Precip Events Conditions
12:53 AM 64.0 °F - 55.9 °F 75% 30.25 in 10.0 mi Calm Calm - N/A   Clear
1:53 AM 61.0 °F - 55.9 °F 83% 30.25 in 10.0 mi Calm Calm - N/A   Clear
2:53 AM 60.1 °F - 55.9 °F 86% 30.25 in 10.0 mi Calm Calm - N/A   Clear
3:53 AM 57.9 °F - 55.0 °F 90% 30.25 in 10.0 mi Calm Calm - N/A   Clear
4:53 AM 61.0 °F - 55.9 °F 83% 30.25 in 10.0 mi Calm Calm - N/A   Clear
5:53 AM 57.9 °F - 55.0 °F 90% 30.27 in 10.0 mi Calm Calm - N/A   Clear
6:53 AM 59.0 °F - 55.9 °F 90% 30.28 in 10.0 mi South 3.5 mph - N/A   Clear
7:53 AM 64.9 °F - 57.9 °F 78% 30.29 in 10.0 mi Calm Calm - N/A   Clear
8:53 AM 71.1 °F - 59.0 °F 66% 30.30 in 10.0 mi SSW 5.8 mph - N/A   Clear
9:53 AM 75.9 °F - 61.0 °F 60% 30.28 in 10.0 mi SSW 9.2 mph - N/A   Clear
10:53 AM 80.1 °F 81.5 °F 63.0 °F 56% 30.28 in 10.0 mi SSW 9.2 mph - N/A   Clear
11:53 AM 82.9 °F 83.7 °F 62.1 °F 49% 30.26 in 10.0 mi SSW 9.2 mph - N/A   Clear
12:53 PM 84.9 °F 85.0 °F 61.0 °F 44% 30.25 in 10.0 mi SSW 11.5 mph - N/A   Clear
1:53 PM 86.0 °F 86.1 °F 61.0 °F 43% 30.24 in 10.0 mi SSW 10.4 mph - N/A   Partly Cloudy
2:53 PM 86.0 °F 86.3 °F 62.1 °F 44% 30.22 in 10.0 mi SSW 11.5 mph - N/A   Clear
3:53 PM 86.0 °F 86.3 °F 62.1 °F 44% 30.20 in 10.0 mi SSW 10.4 mph - N/A   Clear
4:53 PM 86.0 °F 86.8 °F 63.0 °F 46% 30.19 in 10.0 mi SSW 10.4 mph - N/A   Clear
5:53 PM 84.0 °F 84.5 °F 62.1 °F 47% 30.19 in 10.0 mi SSW 8.1 mph - N/A   Clear
6:53 PM 82.0 °F 83.1 °F 63.0 °F 52% 30.18 in 10.0 mi SSW 6.9 mph - N/A   Clear
7:53 PM 78.1 °F - 64.0 °F 62% 30.18 in 10.0 mi SSW 3.5 mph - N/A   Clear
8:53 PM 75.0 °F - 64.0 °F 69% 30.19 in 10.0 mi SSW 3.5 mph - N/A   Clear
9:53 PM 73.0 °F - 63.0 °F 71% 30.21 in 10.0 mi SSW 4.6 mph - N/A   Clear
10:53 PM 72.0 °F - 62.1 °F 71% 30.21 in 10.0 mi SSW 4.6 mph - N/A   Clear
11:53 PM 70.0 °F - 62.1 °F 76% 30.20 in 10.0 mi SW 4.6 mph - N/A   Clear